Dickinson, ND

3:07 PM MDT on May 29, 2017 (GMT -0600)
Dickinson Municipal

Weather History for KDIK - August, 2013

Change the Weather History Date:

Monday, August 26, 2013

  Actual Average Record
Temperature  
Mean Temperature 80 °F 66 °F  
Max Temperature 94 °F 81 °F 101 °F (1939)
Min Temperature 65 °F 51 °F 29 °F (1896)
Degree Days  
Heating Degree Days 0 3  
Month to date heating degree days 8 36  
Since 1 June heating degree days 164 207  
Since 1 July heating degree days 40 70  
Cooling Degree Days 15 4  
Month to date cooling degree days 120 138  
Year to date cooling degree days 263 367  
Since 1 June cooling degree days 254 357  
Growing Degree Days 28 (Base 50)    
Moisture  
Dew Point 62 °F    
Average Humidity 57    
Maximum Humidity 81    
Minimum Humidity 32    
Precipitation  
Precipitation 0.00 in 0.05 in 1.00 in (1952)
Month to date precipitation 1.67 1.29  
Year to date precipitation 13.17 12.04  
Sea Level Pressure  
Sea Level Pressure 29.85 in    
Wind  
Wind Speed 9 mph (SE)    
Max Wind Speed 20 mph    
Max Gust Speed 24 mph    
Visibility 10 miles    
Events      
T = Trace of Precipitation, MM = Missing Value Source: NWS Daily Summary

Daily Weather History Graph

Daily Weather History Graph

Search for Another Location

Airport or City:

Trip Planner

Search our weather history database for the weather conditions in past years. The results will help you decide how hot, cold, wet, or windy it might be!

Date:

Astronomy

Aug. 26, 2013 Rise Set
Actual Time 6:03 AM MDT 7:41 PM MDT
Civil Twilight 5:31 AM MDT 8:13 PM MDT
Nautical Twilight 4:52 AM MDT 8:51 PM MDT
Astronomical Twilight 4:10 AM MDT 9:33 PM MDT
Moon 10:26 PM MDT (8/26) 12:33 PM MDT (8/26)
Length of Visible Light 14h 41m
Length of Day
13h 37m
Waning Gibbous, 66% of the Moon is Illuminated
Aug 26
Waning Gibbous
Aug 28
Last Quarter
Sep 5
New
Sep 12
First Quarter
Sep 19
Full

Hourly Weather History & Observations

Time (MDT) Temp. Heat Index Dew Point Humidity Pressure Visibility Wind Dir Wind Speed Gust Speed Precip Events Conditions
12:56 AM 66.9 °F - 59.0 °F 76% 29.88 in 10.0 mi ESE 5.8 mph - N/A   Clear
1:56 AM 66.9 °F - 59.0 °F 76% 29.87 in 10.0 mi Calm Calm - N/A   Clear
2:56 AM 64.9 °F - 57.9 °F 78% 29.86 in 10.0 mi SSE 6.9 mph - N/A   Clear
3:56 AM 68.0 °F - 59.0 °F 73% 29.87 in 10.0 mi SE 5.8 mph - N/A   Partly Cloudy
4:56 AM 68.0 °F - 60.1 °F 76% 29.86 in 10.0 mi ESE 8.1 mph - N/A   Mostly Cloudy
5:56 AM 66.9 °F - 61.0 °F 81% 29.86 in 10.0 mi ESE 8.1 mph - N/A   Mostly Cloudy
6:56 AM 68.0 °F - 62.1 °F 81% 29.86 in 10.0 mi ESE 8.1 mph - N/A   Scattered Clouds
7:56 AM 71.1 °F - 64.0 °F 78% 29.85 in 10.0 mi East 4.6 mph - N/A   Clear
8:56 AM 75.0 °F - 66.0 °F 73% 29.88 in 10.0 mi SW 3.5 mph - N/A   Clear
9:56 AM 77.0 °F - 66.9 °F 71% 29.86 in 10.0 mi SE 3.5 mph - N/A   Clear
10:56 AM 82.0 °F 84.5 °F 66.9 °F 60% 29.86 in 10.0 mi SE 11.5 mph - N/A   Clear
11:56 AM 84.0 °F 86.3 °F 66.0 °F 55% 29.85 in 10.0 mi SSE 4.6 mph - N/A   Clear
12:56 PM 87.1 °F 89.2 °F 66.0 °F 49% 29.83 in 10.0 mi SE 8.1 mph - N/A   Clear
1:56 PM 89.1 °F 90.0 °F 63.0 °F 42% 29.83 in 10.0 mi South 15.0 mph - N/A   Clear
2:56 PM 91.9 °F 91.2 °F 59.0 °F 33% 29.82 in 10.0 mi South 11.5 mph - N/A   Clear
3:56 PM 91.9 °F 90.6 °F 57.0 °F 31% 29.81 in 10.0 mi SSE 16.1 mph 21.9 mph N/A   Clear
4:56 PM 90.0 °F 90.0 °F 61.0 °F 38% 29.81 in 10.0 mi SE 16.1 mph 21.9 mph N/A   Clear
5:56 PM 86.0 °F 86.1 °F 61.0 °F 43% 29.82 in 10.0 mi SE 13.8 mph - N/A   Clear
6:56 PM 82.0 °F 83.8 °F 64.9 °F 56% 29.83 in 10.0 mi SE 16.1 mph 20.7 mph N/A   Clear
7:56 PM 77.0 °F - 61.0 °F 58% 29.83 in 10.0 mi SSE 10.4 mph - N/A   Clear
8:56 PM 75.9 °F - 61.0 °F 60% 29.85 in 10.0 mi SSE 9.2 mph - N/A   Clear
9:56 PM 75.0 °F - 60.1 °F 60% 29.85 in 10.0 mi South 10.4 mph - N/A   Clear
10:56 PM 73.0 °F - 62.1 °F 68% 29.85 in 10.0 mi South 10.4 mph - N/A   Clear
11:56 PM 70.0 °F - 63.0 °F 78% 29.84 in 10.0 mi South 8.1 mph - N/A   Clear